Volver al catálogo

RADUGA 1M-3

ActivoComunicacionesGEO
NORAD 39375·PAYLOAD·🇷🇺 Russia

Lanzado Nov 11, 2013 desde Baikonur Cosmodrome

Loading…

TLE

ActualizadoSource: Space-Track

Época: Sep 14, 2026, 13:58 UTC

1 39375U 13062A   26257.58203437  .00000146  00000-0  00000-0 0  9994
2 39375   6.1836  71.1945 0002216 303.1581 223.6868  1.00272760 47003

Sigue RADUGA 1M-3 en tiempo real con AllMySat

Download on the App Store